Location: Newark
(42.8481°N, 0.4872°E)
Time: 13:07:38
(UTC+00:00)

A-11 Canister half - Pass Details

Date: 02 November 2020
Orbit: 1525 x 1684 km, 47.3° (Epoch: 01 December)

Event Time Altitude Azimuth Distance (km) Brightness Sun altitude
Rises 10:22:27 0° 180° (S) 4,857 12.6 29.4°
Reaches altitude 10° 10:27:05 10° 162° (SSE) 3,845 12.8 29.7°
Maximum altitude 10:32:46 17° 125° (SE) 3,267 11.8 30.1°
Drops below altitude 10° 10:38:21 10° 89° (E) 3,780 11.3 30.4°
Sets 10:42:46 0° 71° (ENE) 4,740 11.6 30.6°
